Back to catalog

ONEWEB-0044

AliveCommunicationsPO
NORAD 45150·PAYLOAD·🇬🇧 United Kingdom

Launched Feb 6, 2020 from Baikonur Cosmodrome

Loading…

Next Passes (next 24 hours)

TLE

FreshSource: CelesTrak SupGP

Epoch: Sep 14, 2026, 14:15 UTC

1 45150C 20008V   26257.59425185  .00000092  00000+0  26513-3 0  2573
2 45150  87.8895  18.4688 0001841 105.5450   6.5222 13.10367503    18

Track ONEWEB-0044 in real time with AllMySat

Download on the App Store